カタログに戻る

FENGYUN 1C DEB

運用中SSO
NORAD 30701·DEBRIS·🇨🇳 China

打ち上げ May 10, 1999 から Taiyuan Satellite Launch Center

Loading…

次のパス (今後24時間)

TLE

最新Source: Space-Track

元期: Sep 14, 2026, 08:26 UTC

1 30701U 99025ARK 26257.35163404 -.00000030  00000-0  65045-5 0  9993
2 30701  98.6821 296.2847 0035300  38.1392  24.8005 14.13950760 10154

AllMySatでFENGYUN 1C DEBをリアルタイム追跡

Download on the App Store